Location: Pitton
(51.0667°N, 1.7000°W)
Time: 09:23:26
(UTC+00:00)

Okean 1-7 Rocket - Pass Details

Date: 17 September 2019
Orbit: 617 x 649 km, 82.5° (Epoch: 15 October)

Event Time Altitude Azimuth Distance (km) Brightness Sun altitude
Rises 19:12:31 0° 356° (N) 2,911 7.3 -9.4°
Reaches altitude 10° 19:14:56 10° 6° (N) 2,003 6.3 -9.7°
Maximum altitude 19:18:58 33° 71° (ENE) 1,051 4.3 -10.4°
Enters shadow 19:22:38 12° 134° (SE) 1,870 5.5 -10.9°
